"2016-03-30 00:00:00",1501851,8.09,35.69,6.278,1.162,10.5,102.2311,4.993,6.034,70.72,0,109.9,13.26,5.76,357.7
"2016-03-30 00:00:30",1501852,8.06,36.41,6.841,1.557,11.14,102.25,5.042,6.144,71.16,0,109.9,13.27,5.81,358.4
"2016-03-30 00:01:00",1501853,9.13,40.11,6.326,1.283,12.63,102.2637,5.077,6.194,71.34,0,109.9,13.27,5.85,2.1
"2016-03-30 00:01:30",1501854,9.25,39.26,6.63,1.261,12.5,102.2654,5.081,6.246,70.83,0,109.9,13.27,5.85,1.3
"2016-03-30 00:02:00",1501855,8.32,36.44,7.291,1.888,11.21,102.2657,5.082,6.16,70.99,0,109.9,13.27,5.85,358.4
"2016-03-30 00:02:30",1501856,8.15,32.06,7.527,1.329,10.02,102.2745,5.104,6.11,71.34,0,109.9,13.27,5.87,354.1
"2016-03-30 00:03:00",1501857,8.2,37.33,6.694,1.795,11.72,102.2869,5.136,6.201,71.52,0,109.9,13.27,5.91,359.3
"2016-03-30 00:03:30",1501858,7.905,38.52,7.454,1.382,10.93,102.2979,5.164,6.265,71.57,0,109.9,13.27,5.93,0.5
"2016-03-30 00:04:00",1501859,8.22,38.45,7.287,1.375,11.33,102.2987,5.166,6.213,71.42,0,109.9,13.27,5.94,0.5
"2016-03-30 00:04:30",1501860,8.45,38.23,7.137,1.679,11.59,102.299,5.167,6.306,71.47,0,110,13.27,5.94,0.2
"2016-03-30 00:05:00",1501861,8.64,38.08,7.289,1.488,11.47,102.297,5.162,6.253,71.54,0,110,13.27,5.93,0.1
"2016-03-30 00:05:30",1501862,9.11,37.74,7.614,1.249,10.95,102.3012,5.172,6.262,70.84,0,109.9,13.26,5.94,359.7
"2016-03-30 00:06:00",1501863,9.14,38.64,6.971,1.385,11.48,102.314,5.205,6.288,70.51,0,110,13.26,5.98,0.6
"2016-03-30 00:06:30",1501864,9.18,36.09,7.413,1.491,11.57,102.3185,5.217,6.311,70.34,0,110,13.26,5.99,358.1
"2016-03-30 00:07:00",1501865,9.24,39.87,6.655,1.392,12.51,102.3252,5.234,6.397,70.31,0,110,13.26,6.00,1.9
"2016-03-30 00:07:30",1501866,9.22,38.72,6.825,1.455,11.84,102.3286,5.242,6.314,70.07,0,110,13.26,6.01,0.7
"2016-03-30 00:08:00",1501867,8.87,36.57,7.052,1.292,11.27,102.3298,5.245,6.314,70,0,110,13.26,6.02,358.6
"2016-03-30 00:08:30",1501868,9.74,33.98,7.195,1.485,11.41,102.328,5.241,6.307,70.23,0,110,13.26,6.01,356.0
"2016-03-30 00:09:00",1501869,9.34,36.83,6.857,1.481,12.03,102.3283,5.242,6.406,70.83,0,110,13.26,6.01,358.8
"2016-03-30 00:09:30",1501870,9.6,35.2,6.762,1.588,11.85,102.326,5.236,6.38,71.05,0,110,13.26,6.01,357.2
"2016-03-30 00:10:00",1501871,9.91,37.86,7.154,1.787,12.24,102.3252,5.234,6.36,70.85,0,110,13.26,6.00,359.9
"2016-03-30 00:10:30",1501872,8.98,36.03,7.447,1.519,11.2,102.3246,5.232,6.34,70.79,0,110,13.27,6.00,358.0
"2016-03-30 00:11:00",1501873,9.72,32.13,7.767,1.213,11.04,102.3254,5.234,6.378,71.12,0,110,13.26,6.00,354.1
"2016-03-30 00:11:30",1501874,9.69,36.91,7.069,1.519,11.89,102.3249,5.233,6.421,71.3,0,110,13.27,6.00,358.9
"2016-03-30 00:12:00",1501875,10.12,36.13,7.241,1.52,12.03,102.3243,5.231,6.385,71.09,0,110,13.27,6.00,358.1
"2016-03-30 00:12:30",1501876,10.73,36.04,7.073,1.494,12.29,102.3257,5.235,6.396,71.02,0,110,13.27,6.01,358.0
"2016-03-30 00:13:00",1501877,10.4,37.01,6.846,1.389,12.11,102.3249,5.233,6.42,70.57,0,110,13.27,6.00,359.0
"2016-03-30 00:13:30",1501878,10.44,34,6.759,1.597,11.34,102.3178,5.215,6.358,70.23,0,110.1,13.27,5.99,356.0
"2016-03-30 00:14:00",1501879,10.37,38.18,6.67,1.471,12.4,102.3085,5.191,6.414,70.25,0,110,13.27,5.96,0.2
"2016-03-30 00:14:30",1501880,10.85,36.48,6.883,1.611,11.83,102.3045,5.181,6.309,70.22,0,110,13.27,5.95,358.5
"2016-03-30 00:15:00",1501881,10.78,36.8,6.964,1.646,12.43,102.298,5.164,6.354,70.42,0,110,13.27,5.93,358.8
"2016-03-30 00:15:30",1501882,11.23,32.45,6.984,1.584,11.19,102.2915,5.148,6.363,70.49,0,110,13.27,5.92,354.5
"2016-03-30 00:16:00",1501883,11.16,31.99,6.803,1.658,11.91,102.2906,5.145,6.373,71.01,0,110,13.27,5.92,354.0
"2016-03-30 00:16:30",1501884,7.13,25.64,8.33,1.955,11.88,102.2906,5.145,6.391,71.78,0,110,13.27,5.92,347.6
"2016-03-30 00:17:00",1501885,5.966,22.64,7.225,1.627,10.9,102.2904,5.145,6.386,72.6,0,110,13.27,5.91,344.6
"2016-03-30 00:17:30",1501886,6.747,21.6,7.805,1.672,9.25,102.2912,5.147,6.247,73.4,0,110,13.27,5.92,343.6
"2016-03-30 00:18:00",1501887,8.42,26.32,7.504,1.418,10.5,102.2906,5.145,6.295,74.14,0,110,13.27,5.92,348.3
"2016-03-30 00:18:30",1501888,9.76,26.29,8.07,1.646,11.07,102.2912,5.147,6.388,74.49,0,110,13.27,5.92,348.3
"2016-03-30 00:19:00",1501889,10.54,31.45,6.959,1.195,11.81,102.2895,5.142,6.387,74.54,0,110,13.27,5.91,353.5
"2016-03-30 00:19:30",1501890,11.26,33.74,6.966,1.253,11.68,102.285,5.131,6.382,74.54,0,110,13.27,5.90,355.7
"2016-03-30 00:20:00",1501891,10.93,33.39,7.367,1.415,11.35,102.2725,5.099,6.379,74.68,0,110,13.27,5.87,355.4
"2016-03-30 00:20:30",1501892,11.35,37.43,6.374,1.403,12.02,102.2617,5.072,6.406,75,0,110,13.27,5.84,359.4
"2016-03-30 00:21:00",1501893,11.78,37.2,6.312,1.302,11.91,102.2512,5.045,6.379,74.69,0,110,13.27,5.81,359.2
"2016-03-30 00:21:30",1501894,11.42,37.04,6.834,1.152,11.97,102.2428,5.023,6.342,73.95,0,110,13.27,5.79,359.0
"2016-03-30 00:22:00",1501895,11.81,36.94,6.695,1.302,11.85,102.2216,4.969,6.31,73.66,0,110,13.26,5.74,358.9
"2016-03-30 00:22:30",1501896,11.59,36.42,7.126,1.301,12.06,102.2219,4.97,6.263,73.58,0,110,13.26,5.74,358.4
"2016-03-30 00:23:00",1501897,10.94,38.31,6.362,1.241,12.18,102.2039,4.924,6.249,73.6,0,110,13.26,5.69,0.3
"2016-03-30 00:23:30",1501898,10.97,37.33,6.324,1.327,11.87,102.1889,4.885,6.248,73.61,0,110,13.26,5.65,359.3
"2016-03-30 00:24:00",1501899,11.11,38.3,6.209,1.307,12.11,102.1878,4.883,6.225,73.57,0,110,13.26,5.65,0.3
"2016-03-30 00:24:30",1501900,11.41,38.51,6.253,1.21,11.67,102.1733,4.846,6.189,73.54,0,110,13.26,5.61,0.5
"2016-03-30 00:25:00",1501901,10.58,37.71,7.13,1.313,11.65,102.1609,4.814,6.139,73.64,0,110,13.26,5.58,359.7
"2016-03-30 00:25:30",1501902,10.46,39.35,6.73,1.27,12,102.1535,4.795,6.103,73.46,0,110,13.26,5.56,1.3
"2016-03-30 00:26:00",1501903,10.24,40.6,6.668,1.389,11.82,102.1388,4.758,6.107,73.34,0,110,13.26,5.53,2.6
"2016-03-30 00:26:30",1501904,9.96,40.86,6.738,1.313,11.61,102.1233,4.718,6.068,73.17,0,110,13.26,5.49,2.9
"2016-03-30 00:27:00",1501905,10.01,42.34,5.965,1.297,11.95,102.1207,4.711,6.062,73.2,0,110,13.26,5.48,4.3
"2016-03-30 00:27:30",1501906,10.55,41.41,6.591,1.284,11.65,102.1156,4.698,6.008,73.3,0,110,13.26,5.47,3.4
"2016-03-30 00:28:00",1501907,10.76,41.25,6.46,1.439,11.51,102.1049,4.671,5.981,73.7,0,110,13.26,5.44,3.2
"2016-03-30 00:28:30",1501908,10.36,42.19,6.418,1.342,11.69,102.097,4.651,5.996,73.99,0,110,13.26,5.42,4.2
"2016-03-30 00:29:00",1501909,10.53,42.2,6.391,1.433,11.51,102.0874,4.626,5.972,73.74,0,110,13.27,5.39,4.2
"2016-03-30 00:29:30",1501910,10.19,39.55,6.789,1.262,11.69,102.0871,4.626,5.921,73.6,0,110,13.27,5.39,1.5
"2016-03-30 00:30:00",1501911,9.84,40.41,6.273,1.305,11.49,102.0744,4.593,5.914,73.94,0,110,13.27,5.36,2.4
"2016-03-30 00:30:30",1501912,10.19,39.44,6.107,1.238,11.68,102.0682,4.577,5.9,74.18,0,110,13.26,5.35,1.4
"2016-03-30 00:31:00",1501913,9.95,40.16,6.883,1.286,11.58,102.0546,4.543,5.871,74.4,0,110,13.27,5.31,2.2
"2016-03-30 00:31:30",1501914,9.65,42.4,6.056,1.259,11.49,102.0569,4.549,5.874,74.14,0,110,13.27,5.32,4.4
"2016-03-30 00:32:00",1501915,9.34,40.95,6.566,1.357,11.15,102.0552,4.544,5.847,73.82,0,110,13.26,5.31,3.0
"2016-03-30 00:32:30",1501916,9.1,39.89,6.961,1.439,10.87,102.0543,4.542,5.776,73.68,0,110,13.27,5.31,1.9
"2016-03-30 00:33:00",1501917,8.28,31.19,1.981,0.699,7.926,102.0459,4.52,5.592,73.56,0,110,13.27,5.29,353.2
"2016-03-30 00:33:30",1501918,9.13,37.39,6.215,1.465,10.6,102.0399,4.505,5.726,73.98,0,110,13.27,5.27,359.4
"2016-03-30 00:34:00",1501919,9.18,38.29,6.847,1.441,11.17,102.0374,4.499,5.715,74.27,0,110,13.27,5.27,0.3
"2016-03-30 00:34:30",1501920,9.25,40.32,6.269,1.315,11.78,102.0297,4.479,5.747,74.23,0,110,13.27,5.25,2.3
"2016-03-30 00:35:00",1501921,9.08,39.27,6.8,1.393,11.51,102.0198,4.454,5.724,74.25,0,110,13.27,5.22,1.3
"2016-03-30 00:35:30",1501922,8.92,39.46,6.782,1.331,11.32,102.0198,4.454,5.667,74.16,0,110,13.27,5.22,1.5
"2016-03-30 00:36:00",1501923,9.06,38.17,6.743,1.43,10.77,102.0192,4.452,5.658,74.16,0,110,13.27,5.22,0.2
"2016-03-30 00:36:30",1501924,8.75,34.02,6.628,1.385,9.31,102.0181,4.449,5.59,74.29,0,110,13.27,5.22,356.0
"2016-03-30 00:37:00",1501925,9.24,37.39,7.073,1.41,10.81,102.0068,4.421,5.724,74.51,0,110,13.27,5.19,359.4
"2016-03-30 00:37:30",1501926,9.59,39.64,7.168,1.392,11.34,102.0006,4.405,5.581,74.25,0,110,13.27,5.17,1.6
"2016-03-30 00:38:00",1501927,9.75,37.42,7.594,1.487,10.89,101.9893,4.376,5.636,74.53,0,110,13.27,5.14,359.4
"2016-03-30 00:38:30",1501928,10.14,37.18,7.207,1.427,11.23,101.9905,4.379,5.629,74.82,0,110,13.27,5.15,359.2
"2016-03-30 00:39:00",1501929,10.32,38.82,6.501,1.263,11.86,101.9863,4.368,5.634,74.75,0,110,13.27,5.14,0.8
"2016-03-30 00:39:30",1501930,10.57,38.83,6.331,1.255,11.48,101.9718,4.331,5.632,74.74,0,110,13.27,5.10,0.8
"2016-03-30 00:40:00",1501931,10.38,37.33,6.945,1.243,11.53,101.9651,4.314,5.62,74.7,0,110,13.26,5.08,359.3
"2016-03-30 00:40:30",1501932,11.23,36.3,6.754,1.261,11.64,101.9595,4.3,5.597,74.93,0,110,13.26,5.07,358.3
"2016-03-30 00:41:00",1501933,11.04,35.62,5.716,1.327,11.42,101.9597,4.3,5.595,75.47,0,110,13.26,5.07,357.6
"2016-03-30 00:41:30",1501934,10.97,34.6,6.756,1.348,11.1,101.9603,4.302,5.566,75.96,0,110,13.26,5.07,356.6
"2016-03-30 00:42:00",1501935,10.69,35.69,6.148,1.317,11.66,101.9538,4.285,5.584,76.43,0,110,13.27,5.05,357.7
"2016-03-30 00:42:30",1501936,11.12,34.67,6.506,1.105,11.35,101.9448,4.262,5.542,76.77,0,110,13.26,5.03,356.7
"2016-03-30 00:43:00",1501937,11.07,35.25,6.728,1.458,11.37,101.9363,4.241,5.53,77.04,0,110,13.27,5.01,357.2
"2016-03-30 00:43:30",1501938,11.18,37.16,5.983,1.338,11.25,101.9267,4.216,5.547,77.15,0,109.9,13.27,4.98,359.2
"2016-03-30 00:44:00",1501939,10.93,36.49,5.934,1.33,11.04,101.9244,4.21,5.518,76.89,0,109.9,13.27,4.98,358.5
"2016-03-30 00:44:30",1501940,11.14,36.05,6.468,1.313,11.41,101.9131,4.181,5.48,76.82,0,109.9,13.27,4.95,358.0
"2016-03-30 00:45:00",1501941,9.42,31.26,7.102,1.601,11.37,101.9072,4.166,5.479,76.75,0,109.9,13.28,4.93,353.3
"2016-03-30 00:45:30",1501942,9.84,33.4,6.517,1.789,11.41,101.9021,4.153,5.464,77.09,0,109.9,13.27,4.92,355.4
"2016-03-30 00:46:00",1501943,10.05,35.88,7.098,1.714,11.18,101.893,4.13,5.454,77.57,0,109.9,13.27,4.90,357.9
"2016-03-30 00:46:30",1501944,10.59,34.81,6.579,1.232,11,101.8922,4.128,5.44,78.05,0,109.9,13.28,4.89,356.8
"2016-03-30 00:47:00",1501945,9.7,32.79,7.018,1.483,10.95,101.884,4.107,5.409,78.37,0,109.9,13.28,4.87,354.8
"2016-03-30 00:47:30",1501946,9.71,31.72,6.44,1.754,11.27,101.8735,4.08,5.4,78.67,0,109.8,13.28,4.85,353.7
"2016-03-30 00:48:00",1501947,10.7,36.04,6.279,1.313,11.25,101.8659,4.061,5.415,78.89,0,109.9,13.28,4.83,358.0
"2016-03-30 00:48:30",1501948,10.43,35.45,6.997,1.44,11,101.8591,4.043,5.406,78.88,0,109.9,13.27,4.81,357.5
"2016-03-30 00:49:00",1501949,10.65,33.29,6.335,1.29,10.92,101.86,4.046,5.358,78.82,0,109.9,13.28,4.81,355.3
"2016-03-30 00:49:30",1501950,10.68,35.67,7.409,1.481,11.24,101.8441,4.005,5.337,78.91,0,109.9,13.28,4.77,357.7
"2016-03-30 00:50:00",1501951,10.5,33.3,6.382,1.501,11.09,101.8274,3.963,5.287,78.94,0,109.9,13.28,4.73,355.3
"2016-03-30 00:50:30",1501952,9.98,32.67,6.46,1.586,11.07,101.8252,3.957,5.321,79.05,0,109.9,13.28,4.72,354.7
"2016-03-30 00:51:00",1501953,11.39,34.3,6.091,1.19,11.1,101.8227,3.95,5.283,79.18,0,110,13.28,4.72,356.3
"2016-03-30 00:51:30",1501954,10.18,32,6.781,2.119,10.86,101.808,3.913,5.269,79.3,0,109.9,13.28,4.68,354.0
"2016-03-30 00:52:00",1501955,11.27,33.8,6.752,1.319,11.02,101.795,3.88,5.223,79.44,0,109.9,13.28,4.65,355.8
"2016-03-30 00:52:30",1501956,10.99,33.82,6.501,1.535,11.19,101.7958,3.882,5.214,79.55,0,109.9,13.28,4.65,355.8
"2016-03-30 00:53:00",1501957,11.58,35.01,6.227,1.272,10.89,101.7902,3.868,5.208,79.56,0,109.9,13.28,4.63,357.0
"2016-03-30 00:53:30",1501958,11.7,34.93,6.027,1.214,10.86,101.773,3.824,5.192,79.51,0,109.8,13.28,4.59,356.9
"2016-03-30 00:54:00",1501959,11.37,34.56,6.626,1.297,11.17,101.7645,3.802,5.167,79.54,0,109.9,13.29,4.57,356.6
"2016-03-30 00:54:30",1501960,11.8,36.27,6.382,1.376,11.1,101.7591,3.788,5.112,79.54,0,109.9,13.29,4.55,358.3
"2016-03-30 00:55:00",1501961,12.1,35.36,6.165,1.367,11.31,101.7388,3.736,5.087,79.46,0,109.9,13.29,4.50,357.4
"2016-03-30 00:55:30",1501962,11.53,35.78,6.671,1.186,10.91,101.7306,3.715,5.091,79.35,0,109.9,13.28,4.48,357.8
"2016-03-30 00:56:00",1501963,11.89,35.01,6.333,1.226,10.95,101.7235,3.697,5.054,79.4,0,109.9,13.28,4.46,357.0
"2016-03-30 00:56:30",1501964,11.88,34.45,6.642,1.397,11.13,101.7,3.637,5.002,79.49,0,109.9,13.28,4.40,356.5
"2016-03-30 00:57:00",1501965,11.68,35.16,6.563,1.3,11.21,101.6966,3.629,4.991,79.54,0,109.9,13.27,4.39,357.2
"2016-03-30 00:57:30",1501966,11.87,34.82,6.192,1.181,11.23,101.6966,3.629,4.986,79.57,0,109.9,13.28,4.39,356.8
"2016-03-30 00:58:00",1501967,12.06,35.04,5.858,1.285,10.92,101.6862,3.602,4.967,79.7,0,109.9,13.27,4.37,357.0
"2016-03-30 00:58:30",1501968,12.11,33.34,6.522,1.246,10.83,101.6692,3.559,4.922,79.77,0,109.9,13.28,4.32,355.3
"2016-03-30 00:59:00",1501969,12.04,33.48,6.627,1.317,11.01,101.6627,3.542,4.91,79.88,0,109.9,13.28,4.31,355.5
"2016-03-30 00:59:30",1501970,12.05,33.73,6.318,1.281,11.26,101.6636,3.544,4.885,80,0,109.9,13.28,4.31,355.7
"2016-03-30 01:00:00",1501971,11.88,35.38,6.047,1.186,11.2,101.6613,3.538,4.876,80.1,0,109.9,13.28,4.30,357.4
"2016-03-30 01:00:30",1501972,12.33,35.51,6.619,1.175,11.07,101.6497,3.509,4.882,80.2,0,109.9,13.29,4.27,357.5
"2016-03-30 01:01:00",1501973,12.25,35.02,6.103,1.27,10.87,101.6435,3.493,4.86,80.2,0,109.9,13.29,4.26,357.0
"2016-03-30 01:01:30",1501974,12.07,33.73,6.65,1.157,11.03,101.6334,3.467,4.79,80.3,0,109.9,13.29,4.23,355.7
"2016-03-30 01:02:00",1501975,12.12,34.37,6.527,1.382,11.25,101.6368,3.476,4.808,80.4,0,109.9,13.29,4.24,356.4
"2016-03-30 01:02:30",1501976,11.59,35.21,6.516,1.417,10.7,101.6323,3.464,4.809,80.5,0,109.9,13.29,4.23,357.2
"2016-03-30 01:03:00",1501977,11.97,35.4,6.087,1.41,11.11,101.6222,3.439,4.777,80.5,0,109.9,13.29,4.20,357.4
"2016-03-30 01:03:30",1501978,11.42,37.29,6.25,1.278,11.01,101.6112,3.411,4.767,80.6,0,109.9,13.29,4.17,359.3
"2016-03-30 01:04:00",1501979,11.52,34.65,6.564,1.33,10.83,101.6112,3.411,4.729,80.6,0,109.9,13.29,4.17,356.6
"2016-03-30 01:04:30",1501980,11.64,35.88,5.987,1.349,11.17,101.6101,3.408,4.706,80.7,0,109.9,13.29,4.17,357.9
"2016-03-30 01:05:00",1501981,10.9,37.65,6.031,1.286,11.08,101.6045,3.393,4.721,80.8,0,109.9,13.29,4.16,359.6
"2016-03-30 01:05:30",1501982,11.57,34.89,6.656,1.32,10.61,101.5934,3.365,4.668,80.8,0,109.9,13.29,4.13,356.9
"2016-03-30 01:06:00",1501983,11.36,35.63,6.548,1.225,11.22,101.5878,3.351,4.675,80.9,0,109.9,13.29,4.11,357.6
"2016-03-30 01:06:30",1501984,11.51,35.46,6.275,1.274,10.9,101.5807,3.333,4.644,81,0,109.9,13.29,4.10,357.5
"2016-03-30 01:07:00",1501985,11.39,33.89,6.581,1.286,10.89,101.5833,3.339,4.609,81.1,0,109.9,13.29,4.10,355.9
"2016-03-30 01:07:30",1501986,11.32,34.16,5.961,1.263,10.93,101.581,3.334,4.63,81.2,0,109.9,13.29,4.10,356.2
"2016-03-30 01:08:00",1501987,11.43,34.35,6.37,1.163,10.71,101.5776,3.325,4.612,81.2,0,109.9,13.29,4.09,356.4
"2016-03-30 01:08:30",1501988,11.33,33.38,6.427,1.277,10.88,101.568,3.3,4.572,81.3,0,109.9,13.29,4.06,355.4
"2016-03-30 01:09:00",1501989,11.41,33.95,6.387,1.297,10.97,101.5589,3.277,4.584,81.4,0,109.9,13.29,4.04,356.0
"2016-03-30 01:09:30",1501990,11.33,34.61,6.143,1.277,11.1,101.5499,3.254,4.575,81.5,0,109.9,13.29,4.02,356.6
"2016-03-30 01:10:00",1501991,11.42,34.38,6.711,1.169,10.97,101.5479,3.249,4.572,81.5,0,109.9,13.29,4.01,356.4
"2016-03-30 01:10:30",1501992,11.31,34.71,6.23,1.22,10.7,101.5456,3.243,4.56,81.6,0,109.9,13.29,4.01,356.7
"2016-03-30 01:11:00",1501993,10.81,33.41,6.554,1.192,10.72,101.5471,3.247,4.531,81.7,0,109.9,13.29,4.01,355.4
"2016-03-30 01:11:30",1501994,10.99,33.35,6.886,1.27,10.99,101.5459,3.244,4.534,81.7,0,109.9,13.29,4.01,355.4
"2016-03-30 01:12:00",1501995,10.78,33.43,6.083,1.39,10.87,101.5459,3.244,4.536,81.7,0,109.9,13.29,4.01,355.4
"2016-03-30 01:12:30",1501996,10.55,33.39,6.282,1.205,10.78,101.5462,3.245,4.526,81.8,0,109.9,13.29,4.01,355.4
"2016-03-30 01:13:00",1501997,10.73,32.99,6.234,1.22,10.61,101.5406,3.23,4.518,81.8,0,109.9,13.28,3.99,355.0
"2016-03-30 01:13:30",1501998,10.69,32.61,6.503,1.211,10.74,101.5329,3.211,4.499,81.8,0,109.9,13.28,3.97,354.6
"2016-03-30 01:14:00",1501999,10.8,32.65,6.704,1.331,10.75,101.5284,3.199,4.471,81.8,0,109.9,13.29,3.96,354.6
"2016-03-30 01:14:30",1502000,11.04,33.03,6.121,1.196,10.82,101.523,3.186,4.493,81.8,0,109.9,13.28,3.95,355.0
"2016-03-30 01:15:00",1502001,11.36,33.15,6.299,1.202,10.72,101.5134,3.161,4.496,81.7,0,109.9,13.28,3.92,355.1
"2016-03-30 01:15:30",1502002,11.4,33.68,6.383,1.303,10.71,101.514,3.162,4.475,81.6,0,109.9,13.28,3.93,355.7
"2016-03-30 01:16:00",1502003,11.15,32.66,6.279,1.25,10.78,101.516,3.168,4.442,81.4,0,109.9,13.29,3.93,354.7
"2016-03-30 01:16:30",1502004,11.2,32.92,6.502,1.302,10.97,101.5132,3.16,4.42,81.3,0,109.9,13.29,3.92,354.9
"2016-03-30 01:17:00",1502005,11.4,34.03,6.281,1.384,10.77,101.5053,3.14,4.441,81.1,0,109.9,13.29,3.90,356.0
"2016-03-30 01:17:30",1502006,11.5,33.23,6.111,1.302,10.6,101.4993,3.125,4.424,80.9,0,109.9,13.29,3.89,355.2
"2016-03-30 01:18:00",1502007,11.35,33.46,6.334,1.356,10.81,101.4923,3.107,4.403,80.8,0,109.9,13.29,3.87,355.5
"2016-03-30 01:18:30",1502008,11.74,33.78,5.958,1.281,10.77,101.4869,3.093,4.393,80.8,0,109.9,13.29,3.86,355.8
"2016-03-30 01:19:00",1502009,11.6,33.58,6.221,1.183,10.91,101.4829,3.083,4.38,80.8,0,109.9,13.3,3.85,355.6
"2016-03-30 01:19:30",1502010,11.01,32.81,6.58,1.277,10.69,101.4841,3.086,4.388,80.9,0,109.9,13.29,3.85,354.8
"2016-03-30 01:20:00",1502011,11.34,33.44,6.242,1.224,10.48,101.4852,3.089,4.39,81,0,109.9,13.3,3.85,355.4
"2016-03-30 01:20:30",1502012,11.04,32.52,6.16,1.339,10.68,101.4852,3.089,4.342,81,0,109.9,13.3,3.85,354.5
"2016-03-30 01:21:00",1502013,10.68,32.66,6.425,1.38,10.81,101.4849,3.088,4.349,81.1,0,109.9,13.29,3.85,354.7
"2016-03-30 01:21:30",1502014,10.87,33.77,6.274,1.305,10.94,101.4821,3.081,4.357,81.1,0,109.9,13.29,3.84,355.8
"2016-03-30 01:22:00",1502015,11.17,34.12,6.334,1.213,10.77,101.4731,3.058,4.356,81.1,0,109.9,13.3,3.82,356.1
"2016-03-30 01:22:30",1502016,11.02,32.85,6.387,1.241,10.38,101.4702,3.051,4.325,81,0,109.9,13.29,3.81,354.9
"2016-03-30 01:23:00",1502017,11.04,32.86,6.432,1.259,10.73,101.4683,3.046,4.324,81.1,0,109.9,13.29,3.81,354.9
"2016-03-30 01:23:30",1502018,11.11,33.63,6.441,1.229,10.95,101.4668,3.042,4.301,81.1,0,109.8,13.3,3.80,355.6
"2016-03-30 01:24:00",1502019,11.15,34.25,6.397,1.244,10.84,101.4606,3.026,4.314,81.1,0,109.9,13.29,3.79,356.2
"2016-03-30 01:24:30",1502020,11.06,33.72,6.436,1.228,10.85,101.4547,3.011,4.32,81,0,109.9,13.3,3.77,355.7
"2016-03-30 01:25:00",1502021,10.81,33.24,6.292,1.332,10.39,101.4524,3.005,4.309,80.9,0,109.9,13.3,3.77,355.2
"2016-03-30 01:25:30",1502022,11.32,33.21,6.423,1.286,10.62,101.4519,3.004,4.265,80.9,0,109.9,13.3,3.77,355.2
"2016-03-30 01:26:00",1502023,11.45,32.97,6.642,1.218,10.97,101.4521,3.005,4.292,80.9,0,109.9,13.3,3.77,355.0
"2016-03-30 01:26:30",1502024,11.28,32.92,6.396,1.312,10.54,101.4516,3.003,4.292,80.9,0,109.9,13.29,3.77,354.9
"2016-03-30 01:27:00",1502025,11.5,33.36,6.033,1.24,10.66,101.4533,3.008,4.28,80.9,0,109.9,13.29,3.77,355.4
"2016-03-30 01:27:30",1502026,11.31,33.5,5.809,1.311,10.77,101.4539,3.009,4.266,80.9,0,109.9,13.3,3.77,355.5
"2016-03-30 01:28:00",1502027,11.39,31.97,6.621,1.264,10.58,101.4541,3.01,4.254,80.8,0,109.9,13.3,3.77,354.0
"2016-03-30 01:28:30",1502028,11.19,33.04,6.282,1.263,11.05,101.453,3.007,4.237,80.7,0,109.9,13.29,3.77,355.0
"2016-03-30 01:29:00",1502029,11.2,32.97,6.37,1.204,10.91,101.4502,3,4.271,80.6,0,109.9,13.29,3.76,355.0
"2016-03-30 01:29:30",1502030,10.86,32.72,6.478,1.318,10.36,101.4465,2.99,4.255,80.5,0,109.9,13.29,3.75,354.7
"2016-03-30 01:30:00",1502031,9.5,30.17,6.817,1.384,10.84,101.4443,2.985,4.255,80.5,0,109.9,13.29,3.75,352.2
"2016-03-30 01:30:30",1502032,9.87,32.02,6.113,1.308,10.46,101.444,2.984,4.246,80.5,0,109.9,13.29,3.75,354.0
"2016-03-30 01:31:00",1502033,9.78,30.61,6.608,1.369,10.62,101.4423,2.98,4.22,80.5,0,109.9,13.29,3.74,352.6
"2016-03-30 01:31:30",1502034,9.06,30.24,6.443,1.337,10.37,101.4404,2.975,4.254,80.6,0,109.9,13.29,3.74,352.2
"2016-03-30 01:32:00",1502035,9.37,31.34,5.908,1.26,10.29,101.4364,2.964,4.251,80.6,0,109.9,13.29,3.73,353.3
"2016-03-30 01:32:30",1502036,10.16,32.23,6.356,1.471,10.3,101.4324,2.954,4.217,80.6,0,109.9,13.29,3.72,354.2
"2016-03-30 01:33:00",1502037,10.55,32.63,6.343,1.268,10.6,101.4293,2.946,4.225,80.7,0,109.9,13.29,3.71,354.6
"2016-03-30 01:33:30",1502038,10.05,32.39,5.937,1.141,10.72,101.4268,2.94,4.242,80.7,0,109.9,13.29,3.70,354.4
"2016-03-30 01:34:00",1502039,10.91,32.76,6.471,1.176,10.61,101.4257,2.937,4.229,80.7,0,109.9,13.3,3.70,354.8
"2016-03-30 01:34:30",1502040,10.73,32.98,6.544,1.269,10.26,101.4257,2.937,4.249,80.8,0,109.9,13.3,3.70,355.0
"2016-03-30 01:35:00",1502041,10.72,31.65,6.408,1.309,10.28,101.4254,2.936,4.221,80.8,0,109.9,13.3,3.70,353.6
"2016-03-30 01:35:30",1502042,10.64,32.51,6.544,1.288,10.76,101.4254,2.936,4.216,80.9,0,109.8,13.3,3.70,354.5
"2016-03-30 01:36:00",1502043,10.83,33.21,6.352,1.257,10.61,101.4257,2.937,4.246,81,0,109.9,13.3,3.70,355.2
"2016-03-30 01:36:30",1502044,11.09,33.79,6.245,1.249,10.62,101.4257,2.937,4.233,81,0,109.9,13.3,3.70,355.8
"2016-03-30 01:37:00",1502045,11.24,33.41,6.031,1.199,10.45,101.4257,2.937,4.234,81,0,109.9,13.3,3.70,355.4
"2016-03-30 01:37:30",1502046,11.1,33.47,6.266,1.33,10.44,101.4257,2.937,4.203,81.1,0,109.9,13.3,3.70,355.5
"2016-03-30 01:38:00",1502047,11.15,34.12,6.462,1.228,10.76,101.4257,2.937,4.189,81.1,0,109.9,13.3,3.70,356.1
"2016-03-30 01:38:30",1502048,11.24,34.48,6.199,1.287,10.77,101.4257,2.937,4.213,81.1,0,109.9,13.3,3.70,356.5
"2016-03-30 01:39:00",1502049,11.29,34.79,6.302,1.299,10.51,101.4257,2.937,4.226,81.1,0,109.9,13.3,3.70,356.8
"2016-03-30 01:39:30",1502050,10.89,33.4,6.44,1.325,10.46,101.4257,2.937,4.2,81.1,0,109.9,13.3,3.70,355.4
"2016-03-30 01:40:00",1502051,10.4,32.07,6.857,1.372,10.32,101.4257,2.937,4.179,81.1,0,109.9,13.3,3.70,354.1
"2016-03-30 01:40:30",1502052,9.55,31.67,6.822,1.47,10.49,101.4257,2.937,4.184,81.2,0,109.9,13.3,3.70,353.7
"2016-03-30 01:41:00",1502053,9.35,31.9,6.428,1.394,10.22,101.4257,2.937,4.187,81.3,0,109.9,13.3,3.70,353.9
"2016-03-30 01:41:30",1502054,9.57,31.71,5.578,1.447,10.08,101.4257,2.937,4.218,81.4,0,109.8,13.3,3.70,353.7
"2016-03-30 01:42:00",1502055,9.95,32.33,6.508,1.324,10.34,101.4245,2.934,4.192,81.4,0,109.9,13.31,3.70,354.3
"2016-03-30 01:42:30",1502056,10.06,33.33,6.094,1.231,10.14,101.4211,2.925,4.186,81.4,0,109.9,13.3,3.69,355.3
"2016-03-30 01:43:00",1502057,10.39,32.77,6.386,1.155,10.56,101.4141,2.907,4.16,81.4,0,109.9,13.3,3.67,354.8
"2016-03-30 01:43:30",1502058,10.2,32.61,6.505,1.238,10.35,101.4064,2.888,4.17,81.4,0,109.9,13.31,3.65,354.6
"2016-03-30 01:44:00",1502059,10.01,35.44,6.188,1.328,10.26,101.4067,2.889,4.176,81.4,0,109.9,13.3,3.65,357.4
"2016-03-30 01:44:30",1502060,10.14,34.8,6.281,1.303,10.5,101.4076,2.891,4.151,81.3,0,109.9,13.31,3.65,356.8
"2016-03-30 01:45:00",1502061,9.85,34.73,6.324,1.35,10.63,101.4047,2.884,4.153,81.2,0,109.9,13.3,3.65,356.7
"2016-03-30 01:45:30",1502062,10.3,35.35,6.036,1.296,10.57,101.4002,2.872,4.17,81.2,0,109.9,13.3,3.63,357.4
"2016-03-30 01:46:00",1502063,10.24,36.28,6.333,1.252,10.51,101.3991,2.869,4.163,81.2,0,109.8,13.3,3.63,358.3
"2016-03-30 01:46:30",1502064,10.26,34.77,6.372,1.351,10.13,101.3993,2.87,4.149,81.1,0,109.9,13.3,3.63,356.8
"2016-03-30 01:47:00",1502065,10.39,33.93,6.378,1.286,10.15,101.3991,2.869,4.125,81.1,0,109.9,13.3,3.63,355.9
"2016-03-30 01:47:30",1502066,10.05,34.11,6.188,1.198,10.5,101.3974,2.865,4.125,81.2,0,109.9,13.3,3.63,356.1
"2016-03-30 01:48:00",1502067,9.31,32.59,6.481,1.627,10.38,101.3957,2.86,4.128,81.2,0,109.9,13.3,3.62,354.6
"2016-03-30 01:48:30",1502068,8.82,32.84,6.761,1.465,10.14,101.394,2.856,4.161,81.3,0,109.9,13.29,3.62,354.8
"2016-03-30 01:49:00",1502069,9.51,35.27,6.689,1.246,9.84,101.3931,2.854,4.158,81.3,0,109.9,13.3,3.62,357.3
"2016-03-30 01:49:30",1502070,8.94,35.23,6.762,1.291,9.93,101.3917,2.85,4.106,81.4,0,109.8,13.3,3.61,357.2